Location: Unspecified
(41.1637°N, 24.2901°E)
Time: 15:06:11
(UTC+01:00)

ISS - Pass Details

Date: 22 January 2021
Orbit: 418 x 421 km, 51.6° (Epoch: 27 January)

Event Time Altitude Azimuth Distance (km) Brightness Sun altitude
Rises 17:05:21 0° 239° (WSW) 2,358 2.1 -7.5°
Reaches altitude 10° 17:07:27 10° 242° (WSW) 1,498 0.7 -7.8°
Maximum altitude 17:10:48 69° 326° (NW) 454 -3.5 -8.4°
Enters shadow 17:14:02 11° 50° (NE) 1,449 -1.6 -9.0°
